contact:dominique.lefevre@mio.osupytheas.fr, maurice.libes@osupytheas.fr, didier.mallarino@osupytheas.fr
Project:EMSO http://www.emso-fr.org/EMSO-France
Depth: 2436.0 m
Title:EMSO Ligure Ouest : Data MII capteur CSTAR
DateTime,Latitude,Longitude,Instrument_Serial,Reference_Counts,Signal_Counts,Corrected_Signal_raw_counts,Calculated_Beam_c_inverse_meters,Internal_thermistor_counts
DateTime,Latitude,Longitude,Instrument_Serial,Reference_Counts,Signal_Counts,Corrected_Signal_raw_counts,Calculated_Beam_c_inverse_meters,Internal_thermistor_counts
2021-08-04T00:00:25,42.805,6.029,CST-1368DR,5331,7356,14794,0.216,551
2021-08-04T00:03:27,42.805,6.029,CST-1368DR,5331,7356,14793,0.217,551
2021-08-04T00:06:28,42.805,6.029,CST-1368DR,5331,7355,14791,0.217,551
2021-08-04T00:09:30,42.805,6.029,CST-1368DR,5331,7356,14794,0.216,551
2021-08-04T00:12:31,42.805,6.029,CST-1368DR,5331,7356,14793,0.217,551
2021-08-04T00:15:33,42.805,6.029,CST-1368DR,5331,7357,14796,0.216,551
2021-08-04T00:18:34,42.805,6.029,CST-1368DR,5331,7356,14793,0.217,551
2021-08-04T00:21:36,42.805,6.029,CST-1368DR,5331,7358,14797,0.215,551
2021-08-04T00:24:38,42.805,6.029,CST-1368DR,5331,7357,14795,0.216,551
2021-08-04T00:27:39,42.805,6.029,CST-1368DR,5331,7352,14786,0.218,551
2021-08-04T00:30:41,42.805,6.029,CST-1368DR,5331,7356,14794,0.216,551
2021-08-04T00:33:42,42.805,6.029,CST-1368DR,5331,7355,14792,0.217,551
2021-08-04T00:36:44,42.805,6.029,CST-1368DR,5331,7355,14791,0.217,551
2021-08-04T00:39:45,42.805,6.029,CST-1368DR,5331,7353,14787,0.218,551
2021-08-04T00:42:47,42.805,6.029,CST-1368DR,5331,7353,14788,0.218,551
2021-08-04T00:45:49,42.805,6.029,CST-1368DR,5331,7354,14790,0.217,551
2021-08-04T00:48:50,42.805,6.029,CST-1368DR,5331,7356,14793,0.217,551
2021-08-04T00:51:52,42.805,6.029,CST-1368DR,5331,7356,14793,0.217,551
2021-08-04T00:54:53,42.805,6.029,CST-1368DR,5331,7356,14794,0.216,551
2021-08-04T00:57:55,42.805,6.029,CST-1368DR,5331,7355,14792,0.217,551
2021-08-04T01:00:57,42.805,6.029,CST-1368DR,5331,7354,14790,0.217,551
2021-08-04T01:03:58,42.805,6.029,CST-1368DR,5331,7353,14787,0.218,551
2021-08-04T01:07:00,42.805,6.029,CST-1368DR,5331,7354,14790,0.217,551
2021-08-04T01:10:01,42.805,6.029,CST-1368DR,5331,7356,14794,0.216,551
2021-08-04T01:13:03,42.805,6.029,CST-1368DR,5331,7355,14791,0.217,551
2021-08-04T01:16:04,42.805,6.029,CST-1368DR,5331,7355,14791,0.217,551
2021-08-04T01:19:06,42.805,6.029,CST-1368DR,5331,7355,14791,0.217,551
2021-08-04T01:22:08,42.805,6.029,CST-1368DR,5331,7351,14783,0.219,551
2021-08-04T01:25:09,42.805,6.029,CST-1368DR,5331,7354,14790,0.217,550
2021-08-04T01:28:11,42.805,6.029,CST-1368DR,5331,7353,14788,0.218,551
2021-08-04T01:31:12,42.805,6.029,CST-1368DR,5330,7354,14793,0.217,551
2021-08-04T01:34:14,42.805,6.029,CST-1368DR,5330,7349,14782,0.220,551
2021-08-04T01:37:16,42.805,6.029,CST-1368DR,5330,7354,14792,0.217,551
2021-08-04T01:40:17,42.805,6.029,CST-1368DR,5330,7352,14788,0.218,551
2021-08-04T01:43:19,42.805,6.029,CST-1368DR,5330,7349,14781,0.220,551
2021-08-04T01:46:20,42.805,6.029,CST-1368DR,5330,7352,14787,0.218,551
2021-08-04T01:49:22,42.805,6.029,CST-1368DR,5330,7352,14788,0.218,551
2021-08-04T01:52:23,42.805,6.029,CST-1368DR,5330,7354,14792,0.217,551
2021-08-04T01:55:25,42.805,6.029,CST-1368DR,5330,7345,14773,0.222,550
2021-08-04T01:58:27,42.805,6.029,CST-1368DR,5330,7341,14765,0.224,551
2021-08-04T02:01:28,42.805,6.029,CST-1368DR,5330,7353,14790,0.217,551
2021-08-04T02:04:30,42.805,6.029,CST-1368DR,5330,7350,14785,0.219,551
2021-08-04T02:07:31,42.805,6.029,CST-1368DR,5330,7340,14764,0.224,551
2021-08-04T02:10:33,42.805,6.029,CST-1368DR,5330,7354,14793,0.217,551
2021-08-04T02:13:34,42.805,6.029,CST-1368DR,5331,7355,14792,0.217,551
2021-08-04T02:16:36,42.805,6.029,CST-1368DR,5331,7355,14792,0.217,550
2021-08-04T02:19:38,42.805,6.029,CST-1368DR,5331,7354,14790,0.217,551
2021-08-04T02:22:39,42.805,6.029,CST-1368DR,5331,7355,14792,0.217,550
2021-08-04T02:25:41,42.805,6.029,CST-1368DR,5331,7354,14790,0.217,551
2021-08-04T02:28:42,42.805,6.029,CST-1368DR,5331,7355,14792,0.217,551
2021-08-04T02:31:44,42.805,6.029,CST-1368DR,5331,7355,14791,0.217,551
2021-08-04T02:34:46,42.805,6.029,CST-1368DR,5331,7354,14790,0.217,551
2021-08-04T02:37:47,42.805,6.029,CST-1368DR,5331,7354,14790,0.217,551
2021-08-04T02:40:49,42.805,6.029,CST-1368DR,5331,7355,14792,0.217,551
2021-08-04T02:43:50,42.805,6.029,CST-1368DR,5331,7356,14793,0.217,551
2021-08-04T02:46:52,42.805,6.029,CST-1368DR,5331,7356,14793,0.217,551
2021-08-04T02:49:53,42.805,6.029,CST-1368DR,5331,7352,14785,0.219,551
2021-08-04T02:52:55,42.805,6.029,CST-1368DR,5331,7356,14793,0.217,551
2021-08-04T02:55:57,42.805,6.029,CST-1368DR,5331,7353,14788,0.218,551
2021-08-04T02:58:58,42.805,6.029,CST-1368DR,5331,7355,14791,0.217,551
2021-08-04T03:02:00,42.805,6.029,CST-1368DR,5331,7356,14793,0.217,551
2021-08-04T03:05:01,42.805,6.029,CST-1368DR,5331,7355,14791,0.217,551
2021-08-04T03:08:03,42.805,6.029,CST-1368DR,5331,7352,14786,0.218,551
2021-08-04T03:11:05,42.805,6.029,CST-1368DR,5331,7355,14791,0.217,551
2021-08-04T03:14:06,42.805,6.029,CST-1368DR,5331,7355,14792,0.217,551
2021-08-04T03:17:08,42.805,6.029,CST-1368DR,5331,7354,14789,0.218,551
2021-08-04T03:20:09,42.805,6.029,CST-1368DR,5331,7355,14791,0.217,551
2021-08-04T03:23:11,42.805,6.029,CST-1368DR,5331,7355,14792,0.217,551
2021-08-04T03:26:12,42.805,6.029,CST-1368DR,5331,7355,14792,0.217,551
2021-08-04T03:29:14,42.805,6.029,CST-1368DR,5331,7355,14792,0.217,551
2021-08-04T03:32:16,42.805,6.029,CST-1368DR,5331,7355,14791,0.217,551
2021-08-04T03:35:17,42.805,6.029,CST-1368DR,5331,7353,14787,0.218,551
2021-08-04T03:38:19,42.805,6.029,CST-1368DR,5331,7354,14790,0.217,551
2021-08-04T03:41:20,42.805,6.029,CST-1368DR,5331,7355,14792,0.217,551
2021-08-04T03:44:22,42.805,6.029,CST-1368DR,5331,7355,14791,0.217,551
2021-08-04T03:47:24,42.805,6.029,CST-1368DR,5331,7355,14791,0.217,551
2021-08-04T03:50:25,42.805,6.029,CST-1368DR,5331,7353,14788,0.218,551
2021-08-04T03:53:27,42.805,6.029,CST-1368DR,5331,7352,14786,0.218,551
2021-08-04T03:56:28,42.805,6.029,CST-1368DR,5331,7356,14793,0.217,551
2021-08-04T03:59:30,42.805,6.029,CST-1368DR,5331,7355,14792,0.217,551
2021-08-04T04:02:31,42.805,6.029,CST-1368DR,5331,7354,14789,0.218,551
2021-08-04T04:05:33,42.805,6.029,CST-1368DR,5331,7354,14789,0.218,551
2021-08-04T04:08:35,42.805,6.029,CST-1368DR,5331,7354,14790,0.217,551
2021-08-04T04:11:36,42.805,6.029,CST-1368DR,5331,7355,14791,0.217,551
2021-08-04T04:14:38,42.805,6.029,CST-1368DR,5331,7355,14792,0.217,551
2021-08-04T04:17:39,42.805,6.029,CST-1368DR,5331,7355,14791,0.217,551
2021-08-04T04:20:41,42.805,6.029,CST-1368DR,5331,7355,14792,0.217,551
2021-08-04T04:23:42,42.805,6.029,CST-1368DR,5331,7355,14791,0.217,551
2021-08-04T04:26:44,42.805,6.029,CST-1368DR,5331,7355,14792,0.217,551
2021-08-04T04:29:46,42.805,6.029,CST-1368DR,5331,7356,14793,0.217,551
2021-08-04T04:32:47,42.805,6.029,CST-1368DR,5331,7353,14788,0.218,551
2021-08-04T04:35:49,42.805,6.029,CST-1368DR,5331,7355,14791,0.217,551
2021-08-04T04:38:50,42.805,6.029,CST-1368DR,5331,7352,14786,0.218,551
2021-08-04T04:41:52,42.805,6.029,CST-1368DR,5331,7355,14791,0.217,551
2021-08-04T04:44:54,42.805,6.029,CST-1368DR,5331,7354,14790,0.217,550
2021-08-04T04:47:55,42.805,6.029,CST-1368DR,5331,7355,14792,0.217,551
2021-08-04T04:50:57,42.805,6.029,CST-1368DR,5331,7355,14791,0.217,551
2021-08-04T04:53:58,42.805,6.029,CST-1368DR,5331,7354,14790,0.217,550
2021-08-04T04:57:00,42.805,6.029,CST-1368DR,5331,7356,14793,0.217,550
2021-08-04T05:00:01,42.805,6.029,CST-1368DR,5331,7354,14790,0.217,551
2021-08-04T05:03:03,42.805,6.029,CST-1368DR,5331,7355,14791,0.217,551
2021-08-04T05:06:05,42.805,6.029,CST-1368DR,5331,7353,14788,0.218,551
2021-08-04T05:09:06,42.805,6.029,CST-1368DR,5331,7353,14787,0.218,551
2021-08-04T05:12:08,42.805,6.029,CST-1368DR,5331,7353,14787,0.218,551
2021-08-04T05:15:09,42.805,6.029,CST-1368DR,5331,7354,14790,0.217,551
2021-08-04T05:18:11,42.805,6.029,CST-1368DR,5331,7353,14787,0.218,551
2021-08-04T05:21:12,42.805,6.029,CST-1368DR,5331,7356,14793,0.217,551
2021-08-04T05:24:14,42.805,6.029,CST-1368DR,5331,7356,14793,0.217,551
2021-08-04T05:27:16,42.805,6.029,CST-1368DR,5331,7354,14789,0.218,551
2021-08-04T05:30:17,42.805,6.029,CST-1368DR,5331,7354,14790,0.217,551
2021-08-04T05:33:19,42.805,6.029,CST-1368DR,5331,7354,14790,0.217,551
2021-08-04T05:36:20,42.805,6.029,CST-1368DR,5331,7356,14793,0.217,551
2021-08-04T05:39:22,42.805,6.029,CST-1368DR,5331,7355,14792,0.217,551
2021-08-04T05:42:24,42.805,6.029,CST-1368DR,5331,7354,14790,0.217,551
2021-08-04T05:45:25,42.805,6.029,CST-1368DR,5331,7355,14791,0.217,551
2021-08-04T05:48:27,42.805,6.029,CST-1368DR,5330,7354,14793,0.217,551
2021-08-04T05:51:28,42.805,6.029,CST-1368DR,5331,7355,14792,0.217,551
2021-08-04T05:54:30,42.805,6.029,CST-1368DR,5331,7355,14792,0.217,551
2021-08-04T05:57:31,42.805,6.029,CST-1368DR,5331,7355,14791,0.217,551
2021-08-04T06:00:33,42.805,6.029,CST-1368DR,5330,7355,14795,0.216,551
2021-08-04T06:03:35,42.805,6.029,CST-1368DR,5330,7355,14795,0.216,551
2021-08-04T06:06:36,42.805,6.029,CST-1368DR,5330,7355,14795,0.216,551
2021-08-04T06:09:38,42.805,6.029,CST-1368DR,5330,7355,14795,0.216,551
2021-08-04T06:12:39,42.805,6.029,CST-1368DR,5330,7353,14791,0.217,551
2021-08-04T06:15:41,42.805,6.029,CST-1368DR,5331,7355,14791,0.217,551
2021-08-04T06:18:42,42.805,6.029,CST-1368DR,5331,7355,14792,0.217,551
2021-08-04T06:21:44,42.805,6.029,CST-1368DR,5330,7354,14793,0.217,551
2021-08-04T06:24:46,42.805,6.029,CST-1368DR,5330,7352,14788,0.218,551
2021-08-04T06:27:47,42.805,6.029,CST-1368DR,5331,7352,14786,0.218,551
2021-08-04T06:30:49,42.805,6.029,CST-1368DR,5330,7354,14792,0.217,551
2021-08-04T06:33:50,42.805,6.029,CST-1368DR,5331,7352,14785,0.219,551
2021-08-04T06:36:52,42.805,6.029,CST-1368DR,5330,7355,14794,0.216,551
2021-08-04T06:39:54,42.805,6.029,CST-1368DR,5330,7352,14787,0.218,551
2021-08-04T06:42:55,42.805,6.029,CST-1368DR,5331,7355,14791,0.217,551
2021-08-04T06:45:57,42.805,6.029,CST-1368DR,5330,7356,14795,0.216,551
2021-08-04T06:48:58,42.805,6.029,CST-1368DR,5330,7353,14791,0.217,551
2021-08-04T06:52:00,42.805,6.029,CST-1368DR,5330,7354,14792,0.217,551
2021-08-04T06:55:01,42.805,6.029,CST-1368DR,5331,7354,14789,0.218,551
2021-08-04T06:58:03,42.805,6.029,CST-1368DR,5330,7353,14790,0.217,551
2021-08-04T07:01:05,42.805,6.029,CST-1368DR,5330,7354,14792,0.217,551
2021-08-04T07:04:06,42.805,6.029,CST-1368DR,5330,7352,14787,0.218,551
2021-08-04T07:07:08,42.805,6.029,CST-1368DR,5330,7353,14791,0.217,551
2021-08-04T07:10:09,42.805,6.029,CST-1368DR,5330,7354,14792,0.217,550
2021-08-04T07:13:11,42.805,6.029,CST-1368DR,5330,7352,14789,0.218,551
2021-08-04T07:16:13,42.805,6.029,CST-1368DR,5330,7353,14790,0.217,551
2021-08-04T07:19:14,42.805,6.029,CST-1368DR,5330,7349,14783,0.219,551
2021-08-04T07:22:16,42.805,6.029,CST-1368DR,5330,7352,14789,0.218,551
2021-08-04T07:25:17,42.805,6.029,CST-1368DR,5331,7353,14787,0.218,551
2021-08-04T07:28:19,42.805,6.029,CST-1368DR,5330,7351,14786,0.218,551
2021-08-04T07:31:20,42.805,6.029,CST-1368DR,5330,7354,14793,0.217,551
2021-08-04T07:34:22,42.805,6.029,CST-1368DR,5330,7353,14789,0.218,551
2021-08-04T07:37:24,42.805,6.029,CST-1368DR,5330,7353,14790,0.217,551
2021-08-04T07:40:25,42.805,6.029,CST-1368DR,5330,7354,14793,0.217,550
2021-08-04T07:43:27,42.805,6.029,CST-1368DR,5330,7355,14793,0.217,551
2021-08-04T07:46:28,42.805,6.029,CST-1368DR,5330,7354,14793,0.217,551
2021-08-04T07:49:30,42.805,6.029,CST-1368DR,5330,7353,14790,0.217,551
2021-08-04T07:52:31,42.805,6.029,CST-1368DR,5330,7353,14790,0.217,551
2021-08-04T07:55:33,42.805,6.029,CST-1368DR,5330,7353,14791,0.217,551
2021-08-04T07:58:35,42.805,6.029,CST-1368DR,5330,7354,14793,0.217,551
2021-08-04T08:01:36,42.805,6.029,CST-1368DR,5330,7354,14792,0.217,551
2021-08-04T08:04:38,42.805,6.029,CST-1368DR,5330,7350,14785,0.219,551
2021-08-04T08:07:39,42.805,6.029,CST-1368DR,5330,7355,14793,0.217,550
2021-08-04T08:10:41,42.805,6.029,CST-1368DR,5330,7353,14791,0.217,551
2021-08-04T08:13:43,42.805,6.029,CST-1368DR,5330,7354,14793,0.217,551
2021-08-04T08:16:44,42.805,6.029,CST-1368DR,5330,7355,14794,0.216,551
2021-08-04T08:19:46,42.805,6.029,CST-1368DR,5330,7355,14794,0.216,551
2021-08-04T08:22:47,42.805,6.029,CST-1368DR,5330,7354,14793,0.217,551
2021-08-04T08:25:49,42.805,6.029,CST-1368DR,5330,7355,14793,0.217,551
2021-08-04T08:28:50,42.805,6.029,CST-1368DR,5330,7354,14792,0.217,551
2021-08-04T08:31:52,42.805,6.029,CST-1368DR,5330,7353,14791,0.217,551
2021-08-04T08:34:54,42.805,6.029,CST-1368DR,5330,7354,14793,0.217,551
2021-08-04T08:37:55,42.805,6.029,CST-1368DR,5330,7351,14785,0.219,551
2021-08-04T08:40:57,42.805,6.029,CST-1368DR,5330,7353,14791,0.217,551
2021-08-04T08:43:58,42.805,6.029,CST-1368DR,5330,7353,14790,0.217,551
2021-08-04T08:47:00,42.805,6.029,CST-1368DR,5330,7353,14791,0.217,551
2021-08-04T08:50:02,42.805,6.029,CST-1368DR,5330,7353,14790,0.217,551
2021-08-04T08:53:03,42.805,6.029,CST-1368DR,5330,7352,14789,0.218,551
2021-08-04T08:56:05,42.805,6.029,CST-1368DR,5330,7353,14791,0.217,551
2021-08-04T08:59:06,42.805,6.029,CST-1368DR,5330,7353,14790,0.217,551
2021-08-04T09:02:08,42.805,6.029,CST-1368DR,5330,7353,14789,0.218,550
2021-08-04T09:05:09,42.805,6.029,CST-1368DR,5330,7352,14788,0.218,551
2021-08-04T09:08:11,42.805,6.029,CST-1368DR,5330,7352,14788,0.218,551
2021-08-04T09:11:13,42.805,6.029,CST-1368DR,5330,7353,14791,0.217,551
2021-08-04T09:14:14,42.805,6.029,CST-1368DR,5330,7352,14788,0.218,551
2021-08-04T09:17:16,42.805,6.029,CST-1368DR,5330,7354,14792,0.217,551
2021-08-04T09:20:17,42.805,6.029,CST-1368DR,5330,7351,14786,0.218,550
2021-08-04T09:23:19,42.805,6.029,CST-1368DR,5330,7353,14790,0.217,551
2021-08-04T09:26:21,42.805,6.029,CST-1368DR,5330,7352,14788,0.218,551
2021-08-04T09:29:22,42.805,6.029,CST-1368DR,5330,7354,14792,0.217,551
2021-08-04T09:32:24,42.805,6.029,CST-1368DR,5330,7354,14793,0.217,551
2021-08-04T09:35:25,42.805,6.029,CST-1368DR,5330,7352,14789,0.218,551
2021-08-04T09:38:27,42.805,6.029,CST-1368DR,5330,7353,14790,0.217,551
2021-08-04T09:41:28,42.805,6.029,CST-1368DR,5330,7353,14789,0.218,551
2021-08-04T09:44:30,42.805,6.029,CST-1368DR,5330,7353,14789,0.218,551
2021-08-04T09:47:32,42.805,6.029,CST-1368DR,5330,7353,14791,0.217,551
2021-08-04T09:50:33,42.805,6.029,CST-1368DR,5330,7353,14791,0.217,551
2021-08-04T09:53:35,42.805,6.029,CST-1368DR,5330,7352,14789,0.218,551
2021-08-04T09:56:36,42.805,6.029,CST-1368DR,5330,7353,14791,0.217,551
2021-08-04T09:59:38,42.805,6.029,CST-1368DR,5330,7353,14791,0.217,551
2021-08-04T10:02:39,42.805,6.029,CST-1368DR,5330,7353,14790,0.217,551
2021-08-04T10:05:41,42.805,6.029,CST-1368DR,5330,7353,14790,0.217,551
2021-08-04T10:08:43,42.805,6.029,CST-1368DR,5330,7353,14791,0.217,551
2021-08-04T10:11:44,42.805,6.029,CST-1368DR,5330,7353,14790,0.217,551
2021-08-04T10:14:46,42.805,6.029,CST-1368DR,5330,7354,14792,0.217,551
2021-08-04T10:17:47,42.805,6.029,CST-1368DR,5330,7354,14792,0.217,551
2021-08-04T10:20:49,42.805,6.029,CST-1368DR,5330,7353,14790,0.217,551
2021-08-04T10:23:51,42.805,6.029,CST-1368DR,5330,7354,14792,0.217,551
2021-08-04T10:26:52,42.805,6.029,CST-1368DR,5330,7353,14790,0.217,551
2021-08-04T10:29:54,42.805,6.029,CST-1368DR,5330,7352,14787,0.218,551
2021-08-04T10:32:55,42.805,6.029,CST-1368DR,5330,7352,14787,0.218,551
2021-08-04T10:35:57,42.805,6.029,CST-1368DR,5330,7352,14787,0.218,551
2021-08-04T10:38:58,42.805,6.029,CST-1368DR,5330,7350,14785,0.219,551
2021-08-04T10:42:00,42.805,6.029,CST-1368DR,5330,7348,14781,0.220,551
2021-08-04T10:45:02,42.805,6.029,CST-1368DR,5330,7349,14782,0.220,551
2021-08-04T10:48:03,42.805,6.029,CST-1368DR,5330,7352,14788,0.218,551
2021-08-04T10:51:05,42.805,6.029,CST-1368DR,5330,7352,14789,0.218,551
2021-08-04T10:54:06,42.805,6.029,CST-1368DR,5330,7353,14789,0.218,551
2021-08-04T10:57:08,42.805,6.029,CST-1368DR,5330,7351,14787,0.218,551
2021-08-04T11:00:10,42.805,6.029,CST-1368DR,5330,7353,14790,0.217,551
2021-08-04T11:03:11,42.805,6.029,CST-1368DR,5330,7351,14787,0.218,551
2021-08-04T11:06:13,42.805,6.029,CST-1368DR,5330,7351,14786,0.218,551
2021-08-04T11:09:14,42.805,6.029,CST-1368DR,5330,7353,14789,0.218,551
2021-08-04T11:12:16,42.805,6.029,CST-1368DR,5330,7352,14788,0.218,551
2021-08-04T11:15:17,42.805,6.029,CST-1368DR,5330,7352,14789,0.218,551
2021-08-04T11:18:19,42.805,6.029,CST-1368DR,5330,7352,14788,0.218,551
2021-08-04T11:21:21,42.805,6.029,CST-1368DR,5330,7353,14790,0.217,551
2021-08-04T11:24:22,42.805,6.029,CST-1368DR,5330,7353,14789,0.218,551
2021-08-04T11:27:24,42.805,6.029,CST-1368DR,5330,7352,14788,0.218,551
2021-08-04T11:30:25,42.805,6.029,CST-1368DR,5330,7349,14781,0.220,551
2021-08-04T11:33:27,42.805,6.029,CST-1368DR,5330,7351,14787,0.218,551
2021-08-04T11:36:29,42.805,6.029,CST-1368DR,5330,7352,14788,0.218,551
2021-08-04T11:39:30,42.805,6.029,CST-1368DR,5330,7353,14790,0.217,551
2021-08-04T11:42:32,42.805,6.029,CST-1368DR,5330,7352,14788,0.218,551
2021-08-04T11:45:33,42.805,6.029,CST-1368DR,5330,7351,14786,0.218,551
2021-08-04T11:48:35,42.805,6.029,CST-1368DR,5330,7353,14790,0.217,551
2021-08-04T11:51:36,42.805,6.029,CST-1368DR,5330,7352,14789,0.218,551
2021-08-04T11:54:38,42.805,6.029,CST-1368DR,5330,7352,14788,0.218,551
2021-08-04T11:57:40,42.805,6.029,CST-1368DR,5330,7351,14787,0.218,551
2021-08-04T12:00:41,42.805,6.029,CST-1368DR,5330,7352,14788,0.218,551
2021-08-04T12:03:43,42.805,6.029,CST-1368DR,5330,7351,14787,0.218,551
2021-08-04T12:06:44,42.805,6.029,CST-1368DR,5330,7353,14790,0.217,551
2021-08-04T12:09:46,42.805,6.029,CST-1368DR,5330,7351,14786,0.218,551
2021-08-04T12:12:47,42.805,6.029,CST-1368DR,5330,7352,14788,0.218,550
2021-08-04T12:15:49,42.805,6.029,CST-1368DR,5330,7352,14788,0.218,551
2021-08-04T12:18:51,42.805,6.029,CST-1368DR,5330,7352,14787,0.218,551
2021-08-04T12:21:52,42.805,6.029,CST-1368DR,5330,7328,14740,0.231,551
2021-08-04T12:24:54,42.805,6.029,CST-1368DR,5330,7335,14753,0.227,551
2021-08-04T12:27:55,42.805,6.029,CST-1368DR,5330,7342,14767,0.224,551
2021-08-04T12:30:57,42.805,6.029,CST-1368DR,5330,7338,14759,0.226,551
2021-08-04T12:33:59,42.805,6.029,CST-1368DR,5330,7348,14781,0.220,551
2021-08-04T12:37:00,42.805,6.029,CST-1368DR,5330,7351,14786,0.218,551
2021-08-04T12:40:02,42.805,6.029,CST-1368DR,5330,7351,14785,0.219,551
2021-08-04T12:43:03,42.805,6.029,CST-1368DR,5330,7352,14789,0.218,551
2021-08-04T12:46:05,42.805,6.029,CST-1368DR,5330,7351,14785,0.219,551
2021-08-04T12:49:06,42.805,6.029,CST-1368DR,5330,7352,14788,0.218,551
2021-08-04T12:52:08,42.805,6.029,CST-1368DR,5330,7349,14783,0.219,551
2021-08-04T12:55:10,42.805,6.029,CST-1368DR,5330,7352,14787,0.218,550
2021-08-04T12:58:11,42.805,6.029,CST-1368DR,5330,7352,14788,0.218,551
2021-08-04T13:01:13,42.805,6.029,CST-1368DR,5330,7353,14790,0.217,551
2021-08-04T13:04:14,42.805,6.029,CST-1368DR,5330,7352,14788,0.218,551
2021-08-04T13:07:16,42.805,6.029,CST-1368DR,5330,7350,14785,0.219,551
2021-08-04T13:10:18,42.805,6.029,CST-1368DR,5330,7351,14785,0.219,551
2021-08-04T13:13:19,42.805,6.029,CST-1368DR,5330,7351,14787,0.218,551
2021-08-04T13:16:21,42.805,6.029,CST-1368DR,5330,7352,14788,0.218,551
2021-08-04T13:19:22,42.805,6.029,CST-1368DR,5330,7351,14786,0.218,551
2021-08-04T13:22:24,42.805,6.029,CST-1368DR,5330,7350,14785,0.219,551
2021-08-04T13:25:25,42.805,6.029,CST-1368DR,5330,7352,14787,0.218,551
2021-08-04T13:28:27,42.805,6.029,CST-1368DR,5330,7350,14785,0.219,551
2021-08-04T13:31:29,42.805,6.029,CST-1368DR,5330,7352,14787,0.218,551
2021-08-04T13:34:30,42.805,6.029,CST-1368DR,5330,7351,14787,0.218,551
2021-08-04T13:37:32,42.805,6.029,CST-1368DR,5330,7351,14787,0.218,551
2021-08-04T13:40:33,42.805,6.029,CST-1368DR,5330,7351,14786,0.218,551
2021-08-04T13:43:35,42.805,6.029,CST-1368DR,5330,7352,14787,0.218,551
2021-08-04T13:46:36,42.805,6.029,CST-1368DR,5330,7352,14788,0.218,551
2021-08-04T13:49:38,42.805,6.029,CST-1368DR,5330,7352,14789,0.218,551
2021-08-04T13:52:40,42.805,6.029,CST-1368DR,5330,7352,14788,0.218,551
2021-08-04T13:55:41,42.805,6.029,CST-1368DR,5330,7350,14785,0.219,551
2021-08-04T13:58:43,42.805,6.029,CST-1368DR,5330,7351,14786,0.218,551
2021-08-04T14:01:44,42.805,6.029,CST-1368DR,5330,7353,14789,0.218,551
2021-08-04T14:04:46,42.805,6.029,CST-1368DR,5330,7353,14789,0.218,551
2021-08-04T14:07:48,42.805,6.029,CST-1368DR,5330,7351,14786,0.218,551
2021-08-04T14:10:49,42.805,6.029,CST-1368DR,5330,7349,14783,0.219,551
2021-08-04T14:13:51,42.805,6.029,CST-1368DR,5330,7351,14785,0.219,551
2021-08-04T14:16:52,42.805,6.029,CST-1368DR,5330,7351,14787,0.218,551
2021-08-04T14:19:54,42.805,6.029,CST-1368DR,5330,7351,14785,0.219,551
2021-08-04T14:22:55,42.805,6.029,CST-1368DR,5330,7350,14785,0.219,551
2021-08-04T14:25:57,42.805,6.029,CST-1368DR,5330,7352,14787,0.218,551
2021-08-04T14:28:59,42.805,6.029,CST-1368DR,5330,7351,14787,0.218,551
2021-08-04T14:32:00,42.805,6.029,CST-1368DR,5330,7350,14785,0.219,551
2021-08-04T14:35:02,42.805,6.029,CST-1368DR,5330,7351,14786,0.218,551
2021-08-04T14:38:03,42.805,6.029,CST-1368DR,5330,7351,14785,0.219,551
2021-08-04T14:41:05,42.805,6.029,CST-1368DR,5330,7351,14786,0.218,551
2021-08-04T14:44:06,42.805,6.029,CST-1368DR,5330,7350,14783,0.219,551
2021-08-04T14:47:08,42.805,6.029,CST-1368DR,5330,7351,14786,0.218,551
2021-08-04T14:50:10,42.805,6.029,CST-1368DR,5330,7352,14788,0.218,551
2021-08-04T14:53:11,42.805,6.029,CST-1368DR,5330,7351,14786,0.218,551
2021-08-04T14:56:13,42.805,6.029,CST-1368DR,5330,7351,14787,0.218,551
2021-08-04T14:59:14,42.805,6.029,CST-1368DR,5330,7351,14786,0.218,551
2021-08-04T15:02:16,42.805,6.029,CST-1368DR,5330,7351,14785,0.219,551
2021-08-04T15:05:18,42.805,6.029,CST-1368DR,5329,7351,14790,0.217,551
2021-08-04T15:08:19,42.805,6.029,CST-1368DR,5329,7351,14789,0.218,551
2021-08-04T15:11:21,42.805,6.029,CST-1368DR,5330,7350,14785,0.219,551
2021-08-04T15:14:22,42.805,6.029,CST-1368DR,5329,7350,14787,0.218,551
2021-08-04T15:17:24,42.805,6.029,CST-1368DR,5329,7349,14786,0.218,551
2021-08-04T15:20:25,42.805,6.029,CST-1368DR,5329,7351,14789,0.218,551
2021-08-04T15:23:27,42.805,6.029,CST-1368DR,5330,7350,14783,0.219,551
2021-08-04T15:26:29,42.805,6.029,CST-1368DR,5330,7350,14784,0.219,551
2021-08-04T15:29:30,42.805,6.029,CST-1368DR,5329,7348,14784,0.219,551
2021-08-04T15:32:32,42.805,6.029,CST-1368DR,5330,7349,14782,0.220,551
2021-08-04T15:35:33,42.805,6.029,CST-1368DR,5330,7351,14787,0.218,551
2021-08-04T15:38:35,42.805,6.029,CST-1368DR,5329,7350,14787,0.218,551
2021-08-04T15:41:37,42.805,6.029,CST-1368DR,5330,7351,14786,0.218,551
2021-08-04T15:44:38,42.805,6.029,CST-1368DR,5329,7351,14789,0.218,551
2021-08-04T15:47:40,42.805,6.029,CST-1368DR,5330,7350,14783,0.219,551
2021-08-04T15:50:41,42.805,6.029,CST-1368DR,5330,7351,14786,0.218,550
2021-08-04T15:53:43,42.805,6.029,CST-1368DR,5329,7350,14786,0.218,551
2021-08-04T15:56:44,42.805,6.029,CST-1368DR,5330,7350,14783,0.219,551
2021-08-04T15:59:46,42.805,6.029,CST-1368DR,5329,7349,14786,0.218,551
2021-08-04T16:02:48,42.805,6.029,CST-1368DR,5330,7350,14785,0.219,551
2021-08-04T16:05:49,42.805,6.029,CST-1368DR,5330,7351,14785,0.219,551
2021-08-04T16:08:51,42.805,6.029,CST-1368DR,5329,7351,14790,0.217,551
2021-08-04T16:11:52,42.805,6.029,CST-1368DR,5329,7351,14788,0.218,551
2021-08-04T16:14:54,42.805,6.029,CST-1368DR,5329,7351,14789,0.218,551
2021-08-04T16:17:56,42.805,6.029,CST-1368DR,5330,7347,14777,0.221,551
2021-08-04T16:20:57,42.805,6.029,CST-1368DR,5330,7351,14786,0.218,551
2021-08-04T16:23:59,42.805,6.029,CST-1368DR,5330,7351,14787,0.218,551
2021-08-04T16:27:00,42.805,6.029,CST-1368DR,5330,7351,14787,0.218,551
2021-08-04T16:30:02,42.805,6.029,CST-1368DR,5329,7350,14787,0.218,551
2021-08-04T16:33:03,42.805,6.029,CST-1368DR,5329,7350,14788,0.218,551
2021-08-04T16:36:05,42.805,6.029,CST-1368DR,5330,7350,14783,0.219,551
2021-08-04T16:39:07,42.805,6.029,CST-1368DR,5330,7351,14786,0.218,551
2021-08-04T16:42:08,42.805,6.029,CST-1368DR,5330,7348,14780,0.220,551
2021-08-04T16:45:10,42.805,6.029,CST-1368DR,5330,7351,14786,0.218,551
2021-08-04T16:48:11,42.805,6.029,CST-1368DR,5329,7351,14789,0.218,551
2021-08-04T16:51:13,42.805,6.029,CST-1368DR,5330,7350,14785,0.219,551